sat.trackr.live / text

‹ back to catalog

STARLINK-36277

NORAD 68305 · 2026-057M

PAYLOAD ACTIVE UNKNOWN

§ Identity

Operator
Country
US
Launch date
2026-03-20
Launch site
AFWTR
Launch vehicle
Mass (kg)
RCS (m²)

Purposes: comms

External: N2YO · Heavens-Above · Gunter

§ Orbital elements

Epoch: 2026-05-25T01:31:58.584000Z

Period
92.95 min
Inclination
97.2843°
Eccentricity
0.0002043
Mean motion
15.49202699 rev/d
Perigee alt
417.7 km
Apogee alt
420.4 km
Semi-major
6,797.2 km
B*
9.6374e-4
RAAN
270.9289°
Arg perigee
83.2283°
Mean anomaly
276.9200°
Rev number
1,028

§ Raw data

STARLINK-362771 68305U 26057M   26145.06387250  .00052704  00000+0  96374-3 0  99902 68305  97.2843 270.9289 0002043  83.2283 276.9200 15.49202699 10283

JSON: /api/v1/satellites/68305 · /tle

For live sub-satellite position, see the globe view (requires WebGL).

§ Visibility from observer

Set your observer location to see the next 7 days of passes ≥ 10°. The values pass through the URL so the page stays shareable.

No JS? Fill the form by hand. The geolocation button needs JavaScript.